Regional Weather Roundup
Issued by NWS

Home | Current Version | Previous Version | Graphics & Text | Print | Product List | Glossary On
Versions: 1 2 3 4 5 6 7 8 9 10 11 12 13 14 15 16 17 18 19 20 21 22 23 24 25 26 27 28 29 30 31 32 33 34 35 36 37 38 39 40 41 42 43 44 45 46 47 48 49 50
000
ASUS43 KLSX 260557
RWRMO

WEATHER SUMMARY FOR MISSOURI
NATIONAL WEATHER SERVICE SPRINGFIELD MO
100 AM CDT TUE SEP 26 2017

NOTE: "FAIR" INDICATES FEW OR NO CLOUDS BELOW 12,000 FEET WITH NO
       SIGNIFICANT WEATHER AND/OR OBSTRUCTIONS TO VISIBILITY.
       CURRENT SKY AND/OR WEATHER CONDITIONS ARE NOT AVAILABLE FOR
       CHILLICOTHE AND FARMINGTON.

MOZ001>031-035>038-043-044-053-054-260700-
...NORTHERN AND WESTERN MISSOURI...

CITY           SKY/WX    TMP DP  RH WIND       PRES   REMARKS
KANSAS CTY INT CLOUDY    66  64  93 NE8       29.94F
6HR MIN TEMP:  66; 6HR MAX TEMP:  75; 6HR PCP:  0.01;

LEE`S SUMMIT   CLOUDY    69  64  84 N7        29.95F
6HR MIN TEMP:  69; 6HR MAX TEMP:  81;

ST JOSEPH      LGT RAIN  66  66 100 CALM      29.93F
6HR MIN TEMP:  65; 6HR MAX TEMP:  70; 6HR PCP:  0.43;


$$
MOZ066>068-077>081-088>096-101>105-260700-
...SOUTHWEST MISSOURI...

CITY           SKY/WX    TMP DP  RH WIND       PRES   REMARKS
SPRINGFIELD    CLEAR     70  63  78 SE7       29.94F
6HR MIN TEMP:  70; 6HR MAX TEMP:  80;

JOPLIN         CLOUDY    72  66  81 CALM      29.93R
6HR MIN TEMP:  71; 6HR MAX TEMP:  80;


$$
MOZ032>034-039>042-045>050-055>058-069>072-260700-
...CENTRAL MISSOURI...

CITY           SKY/WX    TMP DP  RH WIND       PRES   REMARKS
COLUMBIA       NOT AVBL
JEFFERSON CITY PTCLDY    70  64  81 SE5       29.93S
6HR MIN TEMP:  68; 6HR MAX TEMP:  81;

SEDALIA        CLOUDY    72  66  81 S8        29.92F
6HR MIN TEMP:  71; 6HR MAX TEMP:  81;

WARRENSBURG    CLOUDY    68  63  83 NW6       29.93S

$$
MOZ051-052-059>065-260700-
...EAST CENTRAL MISSOURI...

CITY           SKY/WX    TMP DP  RH WIND       PRES   REMARKS
ST LOUIS INTL  CLEAR     77  62  59 S5        29.95S
6HR MIN TEMP:  77; 6HR MAX TEMP:  87;


$$
MOZ072>076-082>087-097>100-106>115-260700-
...SOUTH CENTRAL AND SOUTHEAST MISSOURI...

CITY           SKY/WX    TMP DP  RH WIND       PRES   REMARKS
CAPE GIRARDEAU CLEAR     66  63  90 CALM      29.96S
6HR MIN TEMP:  64; 6HR MAX TEMP:  80;

POPLAR BLUFF   CLEAR     66  65  96 CALM      29.95S
6HR MIN TEMP:  66; 6HR MAX TEMP:  79;

WEST PLAINS    CLEAR     65  61  87 CALM      29.99S
6HR MIN TEMP:  65; 6HR MAX TEMP:  81;


$$


USA.gov is the U.S. government's official web portal to all federal, state and local government web resources and services.